This demonstration page uses our WeatherBlox Daily Observations layout. Learn more.

Left ArrowRight Arrow

36.19886, -115.1175

Hourly Observations for May 16, 2022

Temp ( °F °C ) Dew Point ( °F °C ) Humidity (%) Winds ( mph kmh ) Pressure ( in mb ) Visibility ( mi km ) Precip ( " mm )
12:53 am 00:53 Clear 86 30 23 -5 10 10 S 14 22 29.72 1007 10 16 0.00 0.00
1:53 am 01:53 Clear 81 27.2 19 -7.2 10 10 WSW 6 9 29.72 1007 10 16 0.00 0.00
2:53 am 02:53 Clear 77 25 16 -8.9 10 10 Calm 29.73 1007 10 16 0.00 0.00
3:53 am 03:53 Clear 74 23.3 16 -8.9 11 11 NW 5 7 29.74 1007 10 16 0.00 0.00
4:53 am 04:53 Clear 73 22.8 18 -7.8 12 12 Calm 29.74 1007 10 16 0.00 0.00
5:53 am 05:53 Sunny 71 21.7 17 -8.3 13 13 NW 7 11 29.76 1008 10 16 0.00 0.00
6:53 am 06:53 Sunny 75 23.9 15 -9.4 10 10 NNW 7 11 29.78 1008 10 16 0.00 0.00
7:53 am 07:53 Sunny 79 26.1 26 -3.3 14 14 Calm 29.80 1009 10 16 0.00 0.00
8:53 am 08:53 Sunny 85 29.4 26 -3.3 12 12 VRB 3 6 29.79 1009 10 16 0.00 0.00
9:53 am 09:53 Sunny 88 31.1 25 -3.9 10 10 VRB 5 7 29.78 1009 10 16 0.00 0.00
10:53 am 10:53 Sunny 90 32.2 25 -3.9 9 9 SSE 3 6 29.78 1009 10 16 0.00 0.00
11:53 am 11:53 Sunny 93 33.9 27 -2.8 9 9 SE 9 15 29.76 1008 10 16 0.00 0.00
12:53 pm 12:53 Sunny 95 35 29 -1.7 9 9 W 8 13 29.74 1007 10 16 0.00 0.00
1:53 pm 13:53 Sunny 98 36.7 29 -1.7 9 9 S 17 28 29.71 1006 10 16 0.00 0.00
2:53 pm 14:53 Sunny 99 37.2 26 -3.3 7 7 SE 17 28 29.69 1005 10 16 0.00 0.00
3:53 pm 15:53 Sunny 100 37.8 22 -5.6 6 6 SW 14 22 29.67 1005 10 16 0.00 0.00
4:53 pm 16:53 Sunny 100 37.8 24 -4.4 7 7 SW 10 17 29.66 1004 10 16 0.00 0.00
5:53 pm 17:53 Sunny 99 37.2 28 -2.2 8 8 WSW 12 19 29.65 1004 10 16 0.00 0.00
6:53 pm 18:53 Sunny 97 36.1 27 -2.8 8 8 WSW 13 20 29.66 1004 10 16 0.00 0.00
7:53 pm 19:53 Clear 94 34.4 23 -5 8 8 WSW 12 19 29.66 1004 10 16 0.00 0.00
8:53 pm 20:53 Clear 93 33.9 22 -5.6 7 7 SW 13 20 29.67 1005 10 16 0.00 0.00
9:53 pm 21:53 Clear 90 32.2 25 -3.9 9 9 SSW 13 20 29.68 1005 10 16 0.00 0.00
10:53 pm 22:53 Clear 88 31.1 30 -1.1 12 12 S 12 19 29.69 1006 10 16 0.00 0.00
11:53 pm 23:53 Clear 86 30 29 -1.7 13 13 S 10 17 29.70 1006 10 16 0.00 0.00

Powered by AerisWeather